GW5569 Weather Reports


time (UTC)temp
C
wind
direction
speed
KPH
gust
KPH
rain 1hr
cm
rain 24hr
cm
rain mn
cm
humidity
%
barometer
mb
20260510164530 22 311 3.2 9.7 0.00 0.00 0.00 56 1013.3
20260510163037 22 293 0.0 9.7 0.00 0.00 0.00 69 1013.4
20260510161533 21 335 0.0 3.2 0.00 0.00 0.00 71 1013.3
20260510160031 21 188 0.0 6.4 0.00 0.00 0.00 62 1013.4
20260510154530 20 0 0.0 4.8 0.00 0.00 0.00 78 1013.9
20260510153029 18 334 0.0 4.8 0.00 0.00 0.00 74 1013.7
20260510151531 17 0 1.6 4.8 0.00 0.00 0.00 85 1013.8
20260510150038 17 301 0.0 3.2 0.00 0.00 0.00 77 1013.8
20260510144541 16 22 0.0 1.6 0.00 0.00 0.00 82 1013.8
20260510143035 15 0 0.0 3.2 0.00 0.00 0.00 84 1014.0
20260510141530 15 0 0.0 1.6 0.00 0.00 0.00 86 1013.8
20260510140027 13 0 0.0 1.6 0.00 0.00 0.00 87 1013.9
20260510134528 12 0 0.0 1.6 0.00 0.00 0.00 87 1013.7
20260510133030 12 0 0.0 3.2 0.00 0.00 0.00 87 1013.8
20260510131531 12 0 0.0 1.6 0.00 0.00 0.00 87 1013.9
20260510130028 11 0 0.0 0.0 0.00 0.00 0.00 88 1013.7
20260510124533 11 0 0.0 0.0 0.00 0.00 0.00 88 1013.3
20260510123027 11 0 0.0 0.0 0.00 0.00 0.00 88 1013.3
20260510121528 11 0 0.0 0.0 0.00 0.00 0.00 88 1013.2
20260510120034 11 0 0.0 0.0 0.00 0.00 0.00 88 1013.2
20260510114530 11 0 0.0 0.0 0.00 0.00 0.00 88 1012.9
20260510113027 10 0 0.0 0.0 0.00 0.00 0.00 88 1012.8
20260510111528 10 0 0.0 0.0 0.00 0.00 0.00 88 1012.9
20260510110030 10 0 0.0 0.0 0.00 0.00 0.00 88 1012.7
20260510104529 10 0 0.0 1.6 0.00 0.00 0.00 88 1012.5
20260510103029 10 0 0.0 1.6 0.00 0.00 0.00 88 1012.2
20260510101530 10 0 0.0 0.0 0.00 0.00 0.00 88 1012.1
20260510100037 9 324 0.0 0.0 0.00 0.00 0.00 88 1012.1
20260510094546 9 0 0.0 1.6 0.00 0.00 0.00 88 1012.1
20260510093028 8 0 0.0 1.6 0.00 0.00 0.00 88 1012.1
20260510091530 8 0 0.0 6.4 0.00 0.00 0.00 88 1012.1
20260510090032 8 110 0.0 6.4 0.00 0.00 0.00 88 1011.9
20260510084528 7 0 0.0 4.8 0.00 0.00 0.00 88 1011.8
20260510083030 7 0 0.0 0.0 0.00 0.00 0.00 88 1011.5
20260510081543 7 0 0.0 0.0 0.00 0.00 0.00 88 1011.5
20260510080030 7 0 0.0 0.0 0.00 0.00 0.00 88 1011.5
20260510074529 7 0 0.0 0.0 0.00 0.00 0.00 87 1011.4
20260510073027 7 0 0.0 0.0 0.00 0.00 0.00 87 1011.5
20260510071537 7 0 0.0 0.0 0.00 0.00 0.00 87 1011.3
20260510070036 6 0 0.0 0.0 0.00 0.00 0.00 87 1011.1
20260510064528 6 0 0.0 0.0 0.00 0.00 0.00 87 1010.9
20260510063029 7 0 0.0 0.0 0.00 0.00 0.00 87 1010.8
20260510061528 7 0 0.0 0.0 0.00 0.00 0.00 87 1011.1
20260510060028 7 0 0.0 0.0 0.00 0.00 0.00 87 1011.1
20260510054530 7 0 0.0 0.0 0.00 0.00 0.00 87 1011.3
20260510053030 7 0 0.0 0.0 0.00 0.00 0.00 87 1011.3
20260510051531 7 0 0.0 0.0 0.00 0.00 0.00 87 1011.4
20260510050031 7 0 0.0 0.0 0.00 0.00 0.00 87 1011.4
20260510044534 7 0 0.0 0.0 0.00 0.00 0.00 87 1011.6
20260510043028 7 0 0.0 0.0 0.00 0.00 0.00 87 1011.6
20260510041527 7 0 0.0 0.0 0.00 0.00 0.00 87 1011.6
20260510040032 8 0 0.0 0.0 0.00 0.00 0.00 87 1011.6
20260510034531 8 0 0.0 0.0 0.00 0.00 0.00 87 1011.5
20260510033030 8 0 0.0 0.0 0.00 0.00 0.00 87 1011.2
20260510031528 8 0 0.0 0.0 0.00 0.00 0.00 87 1011.3
20260510030034 8 0 0.0 0.0 0.00 0.00 0.00 87 1011.2
20260510024530 8 0 0.0 0.0 0.00 0.00 0.00 87 1011.3
20260510023028 8 0 0.0 0.0 0.00 0.00 0.00 86 1011.3
20260510021533 9 0 0.0 0.0 0.00 0.00 0.00 86 1011.2
20260510020030 9 0 0.0 0.0 0.00 0.00 0.00 86 1011.3
20260510014531 10 0 0.0 0.0 0.00 0.00 0.00 86 1011.3
20260510013030 10 0 0.0 0.0 0.00 0.00 0.00 86 1011.3
20260510011539 10 0 0.0 1.6 0.00 0.00 0.00 86 1011.1
20260510010029 10 0 0.0 0.0 0.00 0.00 0.00 86 1011.1
20260510004532 11 0 0.0 0.0 0.00 0.00 0.00 86 1010.9
20260510003031 11 0 0.0 0.0 0.00 0.00 0.00 85 1010.9
20260510001532 11 0 0.0 0.0 0.00 0.00 0.00 85 1010.8
20260510000054 12 0 0.0 0.0 0.00 0.00 0.00 85 1010.7
20260509234545 12 0 0.0 0.0 0.00 0.00 0.00 85 1010.7
20260509233031 12 0 0.0 0.0 0.00 0.00 0.00 84 1010.8
20260509231528 13 0 0.0 0.0 0.00 0.00 0.00 84 1010.6
20260509230035 13 0 0.0 1.6 0.00 0.00 0.00 84 1010.6
20260509224529 13 0 0.0 1.6 0.00 0.00 0.00 84 1010.8
20260509223028 13 0 0.0 1.6 0.00 0.00 0.00 84 1010.5
20260509221530 13 0 0.0 0.0 0.00 0.00 0.00 83 1010.9
20260509220027 13 0 0.0 1.6 0.00 0.00 0.00 83 1011.1
20260509214532 12 0 0.0 0.0 0.00 0.00 0.00 82 1011.3
20260509213030 13 0 0.0 1.6 0.00 0.00 0.00 80 1011.4
20260509211529 14 0 0.0 1.6 0.00 0.00 0.00 72 1011.4
20260509210039 15 0 0.0 4.8 0.00 0.00 0.00 70 1011.2
20260509204535 15 0 0.0 3.2 0.00 0.00 0.00 69 1010.6
20260509203030 15 285 0.0 6.4 0.00 0.00 0.00 69 1010.9
20260509201536 15 298 0.0 6.4 0.00 0.00 0.00 79 1010.8
20260509200032 15 251 3.2 12.9 0.00 0.00 0.00 69 1010.7
20260509194535 15 332 3.2 14.5 0.00 0.00 0.00 69 1011.1
20260509193031 15 331 3.2 12.9 0.00 0.00 0.00 68 1011.1
20260509191530 15 316 3.2 12.9 0.00 0.00 0.00 66 1011.4
20260509190032 15 321 1.6 9.7 0.00 0.00 0.00 65 1011.4
20260509184541 16 151 1.6 4.8 0.00 0.00 0.00 74 1011.4
20260509183033 16 312 1.6 11.3 0.00 0.00 0.00 64 1011.4
20260509181528 16 236 3.2 8.0 0.00 0.00 0.00 63 1011.3
20260509180027 16 267 3.2 14.5 0.00 0.00 0.00 60 1011.1
20260509174536 17 0 0.0 11.3 0.00 0.00 0.00 61 1011.4
20260509173035 17 284 3.2 8.0 0.00 0.00 0.00 69 1011.1
20260509171533 17 272 0.0 8.0 0.00 0.00 0.00 58 1011.3
20260509170030 17 0 0.0 1.6 0.00 0.00 0.00 60 1011.4